Вернуться в каталог

FENGYUN 1C DEB

АктивенSSO
NORAD 30561·DEBRIS·🇨🇳 China

Запущен May 10, 1999 с Taiyuan Satellite Launch Center

Loading…

Ближайшие Пролёты (ближайшие 24 часа)

TLE

СвежийSource: Space-Track

Эпоха: Sep 14, 2026, 15:36 UTC

1 30561U 99025ALB 26257.65060641  .00000353  00000-0  21432-3 0  9996
2 30561  98.7328 257.2333 0060717  51.7133  16.3734 14.11557018  8713

Отслеживайте FENGYUN 1C DEB в реальном времени с AllMySat

Download on the App Store